sat.trackr.live / text

‹ back to catalog

STARLINK-5397

NORAD 54871 · 2022-177BD

PAYLOAD ACTIVE UNKNOWN

§ Identity

Operator
Country
US
Launch date
2022-12-28
Launch site
AFETR
Launch vehicle
Mass (kg)
RCS (m²)

Purposes: comms

External: N2YO · Heavens-Above · Gunter

§ Orbital elements

Epoch: 2026-09-20T22:01:45.934464Z

Period
94.27 min
Inclination
43.0025°
Eccentricity
0.0001338
Mean motion
15.27574757 rev/d
Perigee alt
482.1 km
Apogee alt
484.0 km
Semi-major
6,861.2 km
B*
-2.3589e-6
RAAN
99.4225°
Arg perigee
266.9949°
Mean anomaly
93.0750°
Rev number
20,694

§ Raw data

STARLINK-53971 54871U 22177BD  26263.91789276 -.00000327  00000+0 -23589-5 0  99972 54871  43.0025  99.4225 0001338 266.9949  93.0750 15.27574757206947

JSON: /api/v1/satellites/54871 · /tle

For live sub-satellite position, see the globe view (requires WebGL).

§ Visibility from observer

Set your observer location to see the next 7 days of passes ≥ 10°. The values pass through the URL so the page stays shareable.

No JS? Fill the form by hand. The geolocation button needs JavaScript.